Overview Statistics Trail Chart Weather Telemetry Raw packets
 

This is the latest recevied weather packets stored in our database for station/object N5CSU. If no packets are shown the sender has not sent any weather packets the latest 10 day(s).

<< 91 92 93 94 95 96 97 >>
Time Temp. Humidity Pressure Rain* Wind** Luminosity Snow
1787944236 37.78° C 37% 1017.1 hPa 0 mm - 141 W/m² -
1787943935 37.78° C 37% 1017 hPa 0 mm - 97 W/m² -
1787943631 37.22° C 37% 1017.2 hPa 0 mm - 86 W/m² -
1787943331 37.22° C 37% 1017.2 hPa 0 mm - 30 W/m² -
1787943026 37.78° C 38% 1017.1 hPa 0 mm - 61 W/m² -
1787942721 37.78° C 37% 1017.3 hPa 0 mm - 190 W/m² -
1787942421 37.78° C 37% 1017.3 hPa 0 mm - 27 W/m² -
1787942115 37.22° C 38% 1017.6 hPa 0 mm - 82 W/m² -
1787941811 37.78° C 40% 1017.6 hPa 0 mm - 22 W/m² -
1787941509 37.22° C 41% 1017.8 hPa 0 mm - 56 W/m² -
1787941204 37.22° C 40% 1017.6 hPa 0 mm - 313 W/m² -
1787940898 37.78° C 42% 1017.9 hPa 0 mm - 169 W/m² -
1787940596 37.22° C 42% 1017.8 hPa 0 mm - 300 W/m² -
1787940290 37.22° C 40% 1018 hPa 0 mm - 328 W/m² -
1787939990 37.22° C 39% 1017.9 hPa 0 mm - 203 W/m² -
1787939684 37.22° C 42% 1017.9 hPa 0 mm - 430 W/m² -
1787939381 37.22° C 42% 1018 hPa 0 mm - 536 W/m² -
1787939074 37.22° C 41% 1018.3 hPa 0 mm - 351 W/m² -
1787938773 36.67° C 44% 1018.2 hPa 0 mm - 351 W/m² -
1787938469 36.67° C 43% 1018.3 hPa 0 mm - 26 W/m² -
1787938164 36.67° C 42% 1018.4 hPa 0 mm - 162 W/m² -
1787937859 36.67° C 42% 1018.4 hPa 0 mm - 285 W/m² -
1787937555 36.67° C 44% 1018.2 hPa 0 mm - 28 W/m² -
1787937251 36.67° C 46% 1018.2 hPa 0 mm - 73 W/m² -
1787936947 36.67° C 44% 1018.4 hPa 0 mm - 124 W/m² -

* Rain latest hour (hover to see other rain measurements)
** Current wind speed in m/s (hover to see current wind gust speed)